NILESAT 201

Last updated on Tue Dec 16 2025 00:02:49 GMT+0000 (Coordinated Universal Time)

1 36830U 10037A 25349.27112564 -.00000036 00000+0 00000+0 0 9990 2 36830 0.0469 137.7869 0004478 111.7847 285.2399 1.00273099 56521
UTC large
Height (km)
Speed (km/s)
/
Latitude / Longitude
Inclination (degrees)
Orbital Period (minutes)
Azimuth
Elevation
Range (km)
Doppler Factor

Next 0 passes for location: London (51.5072 / 0.1276)

Sorry there are no passes over London.